MD4008 Weather Reports


time (UTC)temp
F
wind
direction
speed
knots
gust
knots
rain 1hr
in
rain 24hr
in
rain mn
in
humidity
%
barometer
mb
20260505004604 49 51 0.0 0.0 0.00 0.00 0.00 63 1002.9
20260505003021 49 49 0.0 0.0 0.00 0.00 0.00 63 1003.0
20260505001550 49 22 2.6 0.0 0.00 0.00 0.00 62 1003.1
20260505000120 50 53 4.3 0.0 0.00 0.00 0.00 60 1003.2
20260504234523 52 43 2.6 0.0 0.00 0.00 0.00 54 1003.0
20260504233046 53 292 2.6 0.0 0.00 0.00 0.00 51 1002.8
20260504231557 55 292 1.7 0.0 0.00 0.00 0.00 48 1002.7
20260504230004 55 346 1.7 0.0 0.00 0.00 0.00 48 1002.5
20260504224534 55 22 0.9 0.0 0.00 0.00 0.00 47 1002.4
20260504223053 55 276 0.9 0.0 0.00 0.00 0.00 49 1002.4
20260504221510 55 5 0.0 0.0 0.00 0.00 0.00 48 1002.3
20260504220137 55 30 0.0 0.0 0.00 0.00 0.00 46 1002.6
20260504214513 54 332 0.9 0.0 0.00 0.00 0.00 50 1002.9
20260504213046 53 59 2.6 0.0 0.00 0.00 0.00 50 1003.0
20260504211605 54 17 1.7 0.0 0.00 0.00 0.00 45 1002.9
20260504210011 55 101 0.9 0.0 0.00 0.00 0.00 44 1002.8
20260504204602 56 138 3.5 0.0 0.00 0.00 0.00 41 1002.7
20260504203011 56 140 5.2 0.0 0.00 0.00 0.00 40 1002.1
20260504201552 57 135 7.8 0.0 0.00 0.00 0.00 40 1001.9
20260504200125 57 140 6.1 0.0 0.00 0.00 0.00 43 1002.1
20260504194526 54 150 3.5 0.0 0.00 0.00 0.00 43 1002.7
20260504193053 54 117 0.9 0.0 0.00 0.00 0.00 42 1003.1
20260504191558 54 69 2.6 0.0 0.00 0.00 0.00 41 1002.6
20260504190010 52 37 7.0 0.0 0.00 0.00 0.00 46 1002.7
20260504184538 53 20 7.8 0.0 0.00 0.00 0.00 43 1003.0
20260504183056 59 39 1.7 0.0 0.00 0.00 0.00 25 1001.9
20260504181611 60 54 6.1 0.0 0.00 0.00 0.00 24 1001.5
20260504180122 60 53 3.5 0.0 0.00 0.00 0.00 23 1001.3
20260504174529 62 61 6.1 0.0 0.00 0.00 0.00 24 1001.5
20260504173053 61 53 4.3 0.0 0.00 0.00 0.00 22 1001.6
20260504171515 63 342 7.8 0.0 0.00 0.00 0.00 20 1001.7
20260504150125 59 24 3.5 0.0 0.00 0.00 0.00 25 1001.9
20260504130115 47 50 1.7 0.0 0.00 0.00 0.00 34 1002.3
20260504120120 44 57 1.7 0.0 0.00 0.00 0.00 39 1002.2
20260504100120 42 33 1.7 0.0 0.00 0.00 0.00 42 1002.4
20260504081550 44 41 0.0 0.0 0.00 0.00 0.00 40 1003.5
20260504080121 44 40 0.9 0.0 0.00 0.00 0.00 39 1003.7
20260504050006 49 284 0.0 0.0 0.00 0.00 0.00 33 1004.9
20260504044537 49 284 0.0 0.0 0.00 0.00 0.00 30 1005.0
20260504043055 50 91 0.0 0.0 0.00 0.00 0.00 30 1004.8
20260504041505 51 123 0.0 0.0 0.00 0.00 0.00 28 1004.8
20260504040006 53 123 0.0 0.0 0.00 0.00 0.00 26 1004.9
20260504034510 54 59 0.0 0.0 0.00 0.00 0.00 24 1004.6
20260504033039 55 59 0.0 0.0 0.00 0.00 0.00 23 1004.6
20260504031505 56 59 0.0 0.0 0.00 0.00 0.00 23 1004.6
20260504030014 56 59 0.0 0.0 0.00 0.00 0.00 22 1004.5
20260504024544 57 59 0.0 0.0 0.00 0.00 0.00 22 1004.3
20260504023007 58 59 0.0 0.0 0.00 0.00 0.00 21 1004.3
20260504021530 59 60 0.9 0.0 0.00 0.00 0.00 20 1004.1
20260504020012 59 40 1.7 0.0 0.00 0.00 0.00 19 1004.1
20260504014553 60 58 2.6 0.0 0.00 0.00 0.00 18 1003.9
20260504013016 61 35 2.6 0.0 0.00 0.00 0.00 17 1003.8
20260504011537 62 42 2.6 0.0 0.00 0.00 0.00 17 1003.8
20260504010022 62 305 1.7 0.0 0.00 0.00 0.00 16 1003.8